Weather History for Two Harbors, MN

Change the Weather History Date:

Monday, September 24, 2012

  Actual Average Record
Temperature  
Mean Temperature 53 °F -  
Max Temperature 73 °F 61 °F 80 °F (2007)
Min Temperature 33 °F 42 °F 28 °F (2000)
Degree Days  
Heating Degree Days 12    
Growing Degree Days 3 (Base 50)    
Moisture  
Dew Point 33 °F    
Average Humidity 49    
Maximum Humidity 81    
Minimum Humidity 31    
Precipitation  
Precipitation 0.00 in - - ()
Sea Level Pressure  
Sea Level Pressure 29.77 in    
Wind  
Wind Speed 9 mph (West)    
Max Wind Speed 22 mph    
Max Gust Speed 34 mph    
Visibility 10 miles    
Events      
Averages and records for this station are not official NWS values.
T = Trace of Precipitation, MM = Missing Value Source: NWS Daily Summary

Daily Weather History Graph

Daily Weather History Graph

Search for Another Location

Airport:

Trip Planner

Search our weather history database for the weather conditions in past years. The results will help you decide how hot, cold, wet, or windy it might be!

Date:

Astronomy

Sep. 24, 2012 Rise Set
Actual Time 6:57 AM CDT 6:59 PM CDT
Civil Twilight 6:26 AM CDT 7:29 PM CDT
Nautical Twilight 5:51 AM CDT 8:05 PM CDT
Astronomical Twilight 5:14 AM CDT 8:41 PM CDT
Moon 4:02 PM CDT (9/24) 12:54 AM CDT (9/24)
Length of Visible Light 13h 03m
Length of Day
12h 02m
Waxing Gibbous, 71% of the Moon is Illuminated
Sep 24
Waxing Gibbous
Sep 29
Full
Oct 8
Last Quarter
Oct 15
New
Oct 21
First Quarter

Hourly Weather History & Observations

Time (CDT) Temp. Windchill Dew Point Humidity Pressure Visibility Wind Dir Wind Speed Gust Speed Precip Events Conditions
12:11 AM 33.8 °F 29.6 °F 26.6 °F 75% 30.03 in 10.0 mi WSW 4.6 mph - N/A   Clear
12:32 AM 33.8 °F 29.6 °F 26.6 °F 75% 30.02 in 10.0 mi WSW 4.6 mph - N/A   Clear
12:51 AM 35.6 °F 31.7 °F 26.6 °F 70% 30.01 in 10.0 mi WSW 4.6 mph - N/A   Clear
1:11 AM 33.8 °F 30.8 °F 26.6 °F 75% 30.00 in 10.0 mi SSW 3.5 mph - N/A   Clear
1:32 AM 33.8 °F 29.6 °F 26.6 °F 75% 29.99 in 10.0 mi SSW 4.6 mph - N/A   Clear
1:51 AM 33.8 °F 28.6 °F 26.6 °F 75% 29.99 in 10.0 mi SW 5.8 mph - N/A   Clear
2:11 AM 33.8 °F 30.8 °F 26.6 °F 75% 29.98 in 10.0 mi WSW 3.5 mph - N/A   Clear
2:31 AM 33.8 °F - 28.4 °F 81% 29.96 in 10.0 mi Calm Calm - N/A   Clear
2:51 AM 33.8 °F 29.6 °F 26.6 °F 75% 29.95 in 10.0 mi WSW 4.6 mph - N/A   Clear
3:12 AM 37.4 °F 32.8 °F 26.6 °F 65% 29.93 in 10.0 mi WSW 5.8 mph - N/A   Clear
3:31 AM 37.4 °F 32.1 °F 26.6 °F 65% 29.92 in 10.0 mi WSW 6.9 mph - N/A   Clear
3:51 AM 39.2 °F 33.0 °F 28.4 °F 65% 29.91 in 10.0 mi SW 9.2 mph - N/A   Clear
4:12 AM 41.0 °F 35.8 °F 28.4 °F 61% 29.89 in 10.0 mi SW 8.1 mph - N/A   Clear
4:31 AM 42.8 °F 38.0 °F 28.4 °F 57% 29.89 in 10.0 mi WSW 8.1 mph - N/A   Clear
4:51 AM 44.6 °F 39.7 °F 26.6 °F 49% 29.88 in 10.0 mi WSW 9.2 mph - N/A   Clear
5:11 AM 44.6 °F 39.2 °F 26.6 °F 49% 29.86 in 10.0 mi WSW 10.4 mph 20.7 mph N/A   Clear
5:31 AM 46.4 °F 41.1 °F 26.6 °F 46% 29.85 in 10.0 mi WSW 11.5 mph 18.4 mph N/A   Clear
5:52 AM 46.4 °F 39.5 °F 26.6 °F 46% 29.84 in 10.0 mi WSW 17.3 mph 25.3 mph N/A   Clear
6:11 AM 46.4 °F 40.4 °F 26.6 °F 46% 29.84 in 10.0 mi WSW 13.8 mph 21.9 mph N/A   Clear
6:31 AM 46.4 °F 40.7 °F 26.6 °F 46% 29.83 in 10.0 mi WSW 12.7 mph 19.6 mph N/A   Clear
6:52 AM 44.6 °F 39.2 °F 26.6 °F 49% 29.82 in 10.0 mi WSW 10.4 mph 16.1 mph N/A   Clear
7:11 AM 44.6 °F 38.1 °F 26.6 °F 49% 29.81 in 10.0 mi WSW 13.8 mph 17.3 mph N/A   Clear
7:31 AM 46.4 °F 39.8 °F 26.6 °F 46% 29.80 in 10.0 mi WSW 16.1 mph 20.7 mph N/A   Clear
7:52 AM 48.2 °F - 28.4 °F 46% 29.79 in 10.0 mi WSW 15.0 mph 23.0 mph N/A   Clear
8:11 AM 48.2 °F - 28.4 °F 46% 29.78 in 10.0 mi WSW 13.8 mph 21.9 mph N/A   Clear
8:31 AM 50.0 °F - 28.4 °F 43% 29.76 in 10.0 mi WSW 18.4 mph 25.3 mph N/A   Clear
8:52 AM 51.8 °F - 30.2 °F 44% 29.75 in 10.0 mi WSW 15.0 mph 27.6 mph N/A   Clear
9:11 AM 53.6 °F - 30.2 °F 41% 29.74 in 10.0 mi WSW 15.0 mph 25.3 mph N/A   Clear
9:52 AM 57.2 °F - 30.2 °F 36% 29.70 in 10.0 mi WSW 17.3 mph 28.8 mph N/A   Clear
10:11 AM 59.0 °F - 32.0 °F 36% 29.69 in 10.0 mi WSW 15.0 mph 26.5 mph N/A   Clear
10:31 AM 60.8 °F - 33.8 °F 36% 29.68 in 10.0 mi West 16.1 mph 24.2 mph N/A   Clear
10:52 AM 62.6 °F - 33.8 °F 34% 29.67 in 10.0 mi WSW 19.6 mph 29.9 mph N/A   Clear
11:11 AM 64.4 °F - 35.6 °F 34% 29.66 in 10.0 mi WSW 16.1 mph 29.9 mph N/A   Clear
11:31 AM 66.2 °F - 35.6 °F 32% 29.65 in 10.0 mi WSW 19.6 mph 26.5 mph N/A   Clear
11:52 AM 66.2 °F - 37.4 °F 35% 29.64 in 10.0 mi WSW 15.0 mph 34.5 mph N/A   Clear
12:11 PM 69.8 °F - 37.4 °F 31% 29.64 in 10.0 mi WSW 18.4 mph 28.8 mph N/A   Clear
12:31 PM 66.2 °F - 37.4 °F 35% 29.63 in 10.0 mi WSW 15.0 mph 26.5 mph N/A   Scattered Clouds
12:52 PM 69.8 °F - 39.2 °F 33% 29.62 in 10.0 mi West 10.4 mph 25.3 mph N/A   Clear
1:11 PM 69.8 °F - 39.2 °F 33% 29.62 in 10.0 mi West 19.6 mph 26.5 mph N/A   Clear
1:31 PM 71.6 °F - 39.2 °F 31% 29.60 in 10.0 mi WSW 18.4 mph 24.2 mph N/A   Clear
1:52 PM 71.6 °F - 39.2 °F 31% 29.60 in 10.0 mi West 10.4 mph 27.6 mph N/A   Clear
2:11 PM 71.6 °F - 41.0 °F 33% 29.59 in 10.0 mi WSW 21.9 mph 31.1 mph N/A   Scattered Clouds
2:31 PM 71.6 °F - 41.0 °F 33% 29.59 in 10.0 mi West 13.8 mph 26.5 mph N/A   Scattered Clouds
2:52 PM 71.6 °F - 41.0 °F 33% 29.59 in 10.0 mi West 16.1 mph 26.5 mph N/A   Clear
3:11 PM 73.4 °F - 42.8 °F 33% 29.59 in 10.0 mi West 18.4 mph 26.5 mph N/A   Clear
3:31 PM 73.4 °F - 42.8 °F 33% 29.60 in 10.0 mi West 15.0 mph 26.5 mph N/A   Scattered Clouds
3:52 PM 73.4 °F - 42.8 °F 33% 29.61 in 10.0 mi WNW 12.7 mph 24.2 mph N/A   Scattered Clouds
4:11 PM 69.8 °F - 42.8 °F 38% 29.62 in 10.0 mi WNW 10.4 mph 20.7 mph N/A   Scattered Clouds
4:31 PM 69.8 °F - 42.8 °F 38% 29.62 in 10.0 mi WNW 9.2 mph 25.3 mph N/A   Clear
4:52 PM 69.8 °F - 39.2 °F 33% 29.63 in 10.0 mi NW 11.5 mph 21.9 mph N/A   Clear
5:11 PM 68.0 °F - 37.4 °F 33% 29.65 in 10.0 mi NW 10.4 mph 19.6 mph N/A   Clear
5:31 PM 66.2 °F - 37.4 °F 35% 29.65 in 10.0 mi NW 8.1 mph 16.1 mph N/A   Clear
5:52 PM 66.2 °F - 35.6 °F 32% 29.67 in 10.0 mi NW 5.8 mph - N/A   Clear
6:11 PM 64.4 °F - 35.6 °F 34% 29.68 in 10.0 mi NNW 6.9 mph - N/A   Clear
6:52 PM 60.8 °F - 33.8 °F 36% 29.70 in 10.0 mi NNW 5.8 mph - N/A   Clear
7:11 PM 59.0 °F - 35.6 °F 42% 29.71 in 10.0 mi North 4.6 mph - N/A   Clear
7:31 PM 57.2 °F - 35.6 °F 44% 29.72 in 10.0 mi Calm Calm - N/A   Clear
7:52 PM 55.4 °F - 35.6 °F 47% 29.73 in 10.0 mi North 3.5 mph - N/A   Clear
8:11 PM 53.6 °F - 35.6 °F 51% 29.74 in 10.0 mi North 4.6 mph - N/A   Clear
8:31 PM 53.6 °F - 35.6 °F 51% 29.75 in 10.0 mi North 3.5 mph - N/A   Clear
8:52 PM 51.8 °F - 35.6 °F 54% 29.76 in 10.0 mi North 3.5 mph - N/A   Clear
9:11 PM 50.0 °F - 35.6 °F 58% 29.77 in 10.0 mi NNE 4.6 mph - N/A   Clear
9:32 PM 50.0 °F - 35.6 °F 58% 29.78 in 10.0 mi NNE 4.6 mph - N/A   Clear
9:51 PM 48.2 °F - 35.6 °F 62% 29.80 in 10.0 mi Calm Calm - N/A   Clear
10:11 PM 46.4 °F - 33.8 °F 62% 29.81 in 10.0 mi Calm Calm - N/A   Clear
10:32 PM 44.6 °F - 33.8 °F 66% 29.82 in 10.0 mi Calm Calm - N/A   Clear
10:51 PM 42.8 °F - 33.8 °F 70% 29.83 in 10.0 mi Calm Calm - N/A   Clear
11:11 PM 44.6 °F 42.2 °F 33.8 °F 66% 29.83 in 10.0 mi North 4.6 mph - N/A   Clear
11:51 PM 41.0 °F 39.0 °F 32.0 °F 70% 29.84 in 10.0 mi North 3.5 mph - N/A   Clear